GW3047 Weather Reports


Display with metric or nautical units.
time (UTC)temp
F
wind
direction
speed
MPH
gust
MPH
rain 1hr
in
rain 24hr
in
rain mn
in
humidity
%
barometer
mb
20260506081607 38 79 2.0 13.0 0.05 0.19 0.18 91 1016.5
20260506073057 39 76 2.0 7.0 0.07 0.17 0.16 91 1016.6
20260506071555 39 64 4.0 10.0 0.06 0.14 0.13 90 1016.6
20260506061557 40 39 2.0 6.0 0.06 0.08 0.07 90 1016.8
20260506044557 40 64 2.0 7.0 0.01 0.01 0.01 86 1015.8
20260506043100 41 18 2.0 5.0 0.01 0.01 0.01 85 1016.1
20260506041558 41 0 2.0 5.0 0.01 0.01 0.01 83 1015.8
20260506040056 41 67 3.0 10.0 0.00 0.00 0.00 82 1015.2
20260506034615 41 67 4.0 10.0 0.00 0.00 0.00 78 1015.3
20260506033055 42 77 3.0 12.0 0.00 0.00 0.00 76 1014.9
20260506031605 42 83 4.0 13.0 0.00 0.00 0.00 75 1014.5
20260506030058 42 57 5.0 11.0 0.00 0.00 0.00 75 1014.4
20260506024559 42 74 6.0 15.0 0.00 0.00 0.00 76 1014.1
20260506023105 42 79 5.0 13.0 0.00 0.00 0.00 75 1013.8
20260506021556 43 70 4.0 14.0 0.00 0.00 0.00 73 1013.4
20260506020058 43 72 7.0 16.0 0.00 0.00 0.00 71 1013.4
20260506014557 43 42 4.0 14.0 0.00 0.00 0.00 71 1013.5
20260506013109 43 69 4.0 12.0 0.00 0.00 0.00 70 1013.6
20260506011600 44 65 3.0 12.0 0.00 0.00 0.00 72 1013.4
20260506010119 44 52 4.0 11.0 0.00 0.00 0.00 70 1013.4
20260506004556 44 83 3.0 12.0 0.00 0.00 0.00 70 1013.3
20260506003114 45 35 3.0 12.0 0.00 0.00 0.00 68 1013.2
20260506001613 45 73 3.0 10.0 0.00 0.00 0.00 67 1013.2
20260506000056 46 65 2.0 11.0 0.00 0.00 0.00 68 1013.0
20260505234556 46 47 2.0 8.0 0.00 0.00 0.00 66 1013.3
20260505233106 46 54 3.0 6.0 0.00 0.00 0.00 65 1013.3
20260505231556 47 66 2.0 10.0 0.00 0.00 0.00 64 1013.3
20260505230057 47 47 2.0 8.0 0.00 0.00 0.00 63 1013.1
20260505224556 48 345 3.0 8.0 0.00 0.00 0.00 61 1013.1
20260505223055 48 56 3.0 9.0 0.00 0.00 0.00 59 1012.9
20260505221556 49 107 3.0 9.0 0.00 0.00 0.00 57 1012.9
20260505220058 49 65 3.0 11.0 0.00 0.00 0.00 56 1012.7
20260505214624 50 91 4.0 11.0 0.00 0.00 0.00 56 1012.5
20260505213059 49 70 2.0 13.0 0.00 0.00 0.00 56 1012.6
20260505211556 50 72 3.0 12.0 0.00 0.00 0.00 55 1012.9
20260505210058 51 60 3.0 12.0 0.00 0.00 0.00 54 1013.0
20260505204556 51 307 6.0 12.0 0.00 0.00 0.00 52 1012.9
20260505203056 51 66 6.0 13.0 0.00 0.00 0.00 51 1012.8
20260505201557 52 56 4.0 11.0 0.00 0.00 0.00 51 1013.1
20260505200056 52 66 3.0 12.0 0.00 0.00 0.00 50 1013.2
20260505194555 52 71 4.0 10.0 0.00 0.00 0.00 50 1013.3
20260505193056 52 54 4.0 15.0 0.00 0.00 0.00 49 1013.2
20260505191608 53 59 2.0 10.0 0.00 0.00 0.00 48 1013.4
20260505190105 53 67 5.0 14.0 0.00 0.00 0.00 48 1013.4
20260505184558 53 59 3.0 12.0 0.00 0.00 0.00 48 1013.3
20260505183131 53 61 3.0 10.0 0.00 0.00 0.00 47 1013.5
20260505181600 53 93 3.0 10.0 0.00 0.00 0.00 47 1013.6
20260505180057 53 59 5.0 18.0 0.00 0.00 0.00 47 1013.5
20260505174600 52 45 7.0 18.0 0.00 0.00 0.00 48 1013.3
20260505173101 52 76 6.0 15.0 0.00 0.00 0.00 47 1013.5
20260505171603 52 47 5.0 12.0 0.00 0.00 0.00 49 1013.6
20260505170058 52 50 5.0 18.0 0.00 0.00 0.00 47 1013.9
20260505164553 52 73 4.0 12.0 0.00 0.00 0.00 48 1013.9
20260505163056 52 34 4.0 14.0 0.00 0.00 0.00 47 1013.7
20260505161616 51 63 5.0 16.0 0.00 0.00 0.00 49 1013.6
20260505153056 50 58 3.0 11.0 0.00 0.00 0.00 51 1013.7
20260505151614 50 69 5.0 13.0 0.00 0.00 0.00 52 1013.6
20260505124559 47 68 3.0 8.0 0.00 0.00 0.00 61 1012.1
20260505123057 47 22 2.0 9.0 0.00 0.00 0.00 61 1011.7
20260505121559 47 351 1.0 12.0 0.00 0.00 0.00 59 1011.1
20260505120111 48 51 4.0 11.0 0.00 0.00 0.00 58 1010.2
20260505114600 48 43 3.0 14.0 0.00 0.00 0.00 57 1010.4
20260505113056 48 46 3.0 14.0 0.00 0.00 0.00 56 1010.0
20260505111555 48 61 4.0 13.0 0.00 0.00 0.00 56 1009.9
20260505101554 49 50 5.0 14.0 0.00 0.00 0.00 55 1008.5
20260505100055 50 70 4.0 14.0 0.00 0.00 0.00 55 1008.3
20260505094556 50 62 5.0 14.0 0.00 0.00 0.00 54 1008.7
20260505093058 50 66 5.0 14.0 0.00 0.00 0.00 54 1008.7
20260505091601 51 55 5.0 11.0 0.00 0.00 0.00 54 1008.6
20260505090057 51 34 3.0 16.0 0.00 0.00 0.00 54 1008.7
20260505084554 51 67 3.0 11.0 0.00 0.00 0.00 54 1008.5
20260505083058 51 85 3.0 13.0 0.00 0.00 0.00 53 1008.2